Fjordprinsessen — LJVE — position and weather

sailwx.info

Track history (hours):
 
Tides and Currents Weather Stations Pressure Air Temp Water Temp Dewpoint Dewpoint Depression Visibility Wind Speed Wind Dir Waves Ship Positions

Fjordprinsessen

Last reported at 2014-Nov-26 18:31 UTC. Time now 2014-Nov-26 21:36 UTC.
Position N 69°42' E 019°03'.

Length 30 m; draft 2.9 m.

Type: High speed craft. MMSI: 259604000.

Date/timePositionNaut miles runAvg speedWind from/ knotsBaromVisibWave heightAir tempDewpointWater temp
2014-Nov-26 18:31N 69°42' E 019°03'4 3.9
2014-Nov-26 17:33N 69°39' E 018°57'2 0.9
2014-Nov-26 15:07N 69°37' E 018°54'2 3.8
2014-Nov-26 14:31N 69°39' E 018°57'0 0.0
2014-Nov-26 13:31N 69°39' E 018°57'0 0.0
2014-Nov-26 12:31N 69°39' E 018°57'0 0.0
2014-Nov-26 11:31N 69°39' E 018°57'0 0.0
2014-Nov-26 10:31N 69°39' E 018°57'0 0.0
2014-Nov-26 09:31N 69°39' E 018°57'0 0.0
2014-Nov-26 08:22N 69°39' E 018°57'7 3.4
2014-Nov-26 06:24N 69°34' E 018°46'7 7.6
2014-Nov-26 05:32N 69°39' E 018°57'0 0.0
2014-Nov-26 04:32N 69°39' E 018°57'0 0.0
2014-Nov-26 03:29N 69°39' E 018°57'0 0.0
2014-Nov-26 02:32N 69°39' E 018°57'0 0.0
2014-Nov-26 01:29N 69°39' E 018°57'0 0.0
2014-Nov-26 00:32N 69°39' E 018°57'0 0.0
2014-Nov-25 23:32N 69°39' E 018°57'0 0.0
2014-Nov-25 22:32N 69°39' E 018°57'0 0.0
2014-Nov-25 21:32N 69°39' E 018°57'0 0.0
2014-Nov-25 20:20N 69°39' E 018°57'0 0.0
2014-Nov-25 19:29N 69°39' E 018°57'6 1.5
2014-Nov-25 15:16N 69°44' E 019°06'6 7.6
2014-Nov-25 14:26N 69°39' E 018°57'0 0.0
2014-Nov-25 13:32N 69°39' E 018°57'0 0.0
2014-Nov-25 12:29N 69°39' E 018°57'0 0.0
2014-Nov-25 11:23N 69°39' E 018°57'0 0.0
2014-Nov-25 10:32N 69°39' E 018°57'0 0.0
2014-Nov-25 09:29N 69°39' E 018°57'5 0.3
2014-Nov-24 18:33N 69°43' E 019°04'5 4.5
2014-Nov-24 17:33N 69°39' E 018°57'5 2.2
2014-Nov-24 15:12N 69°34' E 018°50'5 7.1
2014-Nov-24 14:29N 69°39' E 018°57'0 0.0
2014-Nov-24 13:26N 69°39' E 018°57'0 0.0
2014-Nov-24 12:32N 69°39' E 018°57'0 0.0
2014-Nov-24 11:29N 69°39' E 018°57'0 0.0
2014-Nov-24 10:32N 69°39' E 018°57'0 0.0
2014-Nov-24 09:29N 69°39' E 018°57'0 0.0
2014-Nov-24 08:32N 69°39' E 018°57'7 3.2
2014-Nov-24 06:25N 69°34' E 018°45'7 7.8
2014-Nov-24 05:33N 69°39' E 018°57'0 0.0
2014-Nov-24 04:33N 69°39' E 018°57'0 0.0
2014-Nov-24 03:33N 69°39' E 018°57'0 0.0
2014-Nov-24 02:33N 69°39' E 018°57'0 0.0
2014-Nov-24 01:33N 69°39' E 018°57'0 0.0
2014-Nov-24 00:33N 69°39' E 018°57'0 0.0
2014-Nov-23 23:33N 69°39' E 018°57'0 0.0
2014-Nov-23 22:33N 69°39' E 018°57'0 0.0
2014-Nov-23 21:33N 69°39' E 018°57'5 2.3
2014-Nov-23 19:32N 69°35' E 018°50'5 0.8
2014-Nov-23 13:33N 69°39' E 018°57'0 0.0
2014-Nov-23 12:33N 69°39' E 018°57'0 0.0
2014-Nov-23 11:33N 69°39' E 018°57'0 0.0
2014-Nov-23 10:33N 69°39' E 018°57'0 0.0
2014-Nov-23 09:33N 69°39' E 018°57'0 0.0
2014-Nov-23 08:33N 69°39' E 018°57'0 0.0
2014-Nov-23 07:33N 69°39' E 018°57'0 0.0
2014-Nov-23 06:33N 69°39' E 018°57'0 0.0
2014-Nov-23 05:33N 69°39' E 018°57'0 0.0
2014-Nov-23 04:33N 69°39' E 018°57'0 0.0
2014-Nov-23 03:33N 69°39' E 018°57'0 0.0
2014-Nov-23 02:33N 69°39' E 018°57'0 0.0
2014-Nov-23 01:33N 69°39' E 018°57'0 0.0
2014-Nov-23 00:33N 69°39' E 018°57'0 0.0
2014-Nov-22 23:33N 69°39' E 018°57'0 0.0
2014-Nov-22 22:33N 69°39' E 018°57'0 0.0
2014-Nov-22 21:33N 69°39' E 018°57'0 0.0
2014-Nov-22 20:33N 69°39' E 018°57'0 0.0
2014-Nov-22 19:33N 69°39' E 018°57'0 0.0
2014-Nov-22 18:33N 69°39' E 018°57'0 0.0
2014-Nov-22 17:33N 69°39' E 018°57'0 0.0
2014-Nov-22 16:33N 69°39' E 018°57'0 0.0
2014-Nov-22 15:33N 69°39' E 018°57'0 0.0
2014-Nov-22 14:33N 69°39' E 018°57'0 0.0
2014-Nov-22 13:33N 69°39' E 018°57'0 0.0
2014-Nov-22 12:33N 69°39' E 018°57'0 0.0
2014-Nov-22 11:33N 69°39' E 018°57'0 0.0
2014-Nov-22 10:33N 69°39' E 018°57'0 0.0
2014-Nov-22 09:33N 69°39' E 018°57'0 0.0
2014-Nov-22 08:33N 69°39' E 018°57'0 0.0
2014-Nov-22 07:33N 69°39' E 018°57'0 0.0
2014-Nov-22 06:33N 69°39' E 018°57'0 0.0
2014-Nov-22 05:33N 69°39' E 018°57'0 0.0
2014-Nov-22 04:33N 69°39' E 018°57'0 0.0
2014-Nov-22 03:33N 69°39' E 018°57'0 0.0
2014-Nov-22 02:33N 69°39' E 018°57'0 0.0
2014-Nov-22 01:33N 69°39' E 018°57'0 0.0
2014-Nov-22 00:33N 69°39' E 018°57'0 0.0
2014-Nov-21 23:33N 69°39' E 018°57'0 0.0
2014-Nov-21 22:33N 69°39' E 018°57'6 1.3
2014-Nov-21 17:30N 69°44' E 019°06'10 4.5
2014-Nov-21 15:11N 69°35' E 018°51'4 6.5
2014-Nov-21 14:33N 69°39' E 018°57'0 0.0
2014-Nov-21 13:18N 69°39' E 018°57'0 0.0
2014-Nov-21 12:33N 69°39' E 018°57'0 0.0
2014-Nov-21 11:33N 69°39' E 018°57'0 0.0
2014-Nov-21 10:30N 69°39' E 018°57'0 0.0
2014-Nov-21 09:27N 69°39' E 018°57'0 0.0
2014-Nov-21 08:24N 69°39' E 018°57'6 2.9
2014-Nov-21 06:24N 69°34' E 018°47'6 7.1
2014-Nov-21 05:33N 69°39' E 018°57'0 0.0
2014-Nov-21 04:33N 69°39' E 018°57'0 0.0
2014-Nov-21 03:33N 69°39' E 018°57'0 0.0
2014-Nov-21 02:33N 69°39' E 018°57'0 0.0
2014-Nov-21 01:33N 69°39' E 018°57'0 0.0
2014-Nov-21 00:33N 69°39' E 018°57'0 0.0
2014-Nov-20 23:33N 69°39' E 018°57'0 0.0
2014-Nov-20 22:33N 69°39' E 018°57'0 0.0
2014-Nov-20 21:33N 69°39' E 018°57'0 0.0
2014-Nov-20 20:33N 69°39' E 018°57'0 0.0
2014-Nov-20 19:33N 69°39' E 018°57'6 1.3
2014-Nov-20 15:14N 69°44' E 019°05'6 6.2
2014-Nov-20 14:19N 69°39' E 018°57'0 0.0
2014-Nov-20 13:31N 69°39' E 018°57'0 0.0
2014-Nov-20 12:31N 69°39' E 018°57'0 0.0
2014-Nov-20 11:25N 69°39' E 018°57'0 0.0
2014-Nov-20 10:33N 69°39' E 018°57'0 0.0
2014-Nov-20 09:33N 69°39' E 018°57'0 0.0
2014-Nov-19 18:34N 69°39' E 018°59'0 0.4
2014-Nov-19 17:33N 69°39' E 018°57'5 2.2
2014-Nov-19 15:14N 69°35' E 018°50'5 7.5
2014-Nov-19 14:33N 69°39' E 018°57'0 0.0
2014-Nov-19 13:33N 69°39' E 018°57'0 0.0
2014-Nov-19 12:33N 69°39' E 018°57'0 0.0
2014-Nov-19 11:33N 69°39' E 018°57'2 2.2
2014-Nov-19 10:33N 69°41' E 018°60'0 0.0
2014-Nov-19 09:33N 69°41' E 018°60'0 0.0
2014-Nov-19 08:33N 69°41' E 018°60'7 3.0
2014-Nov-19 06:21N 69°35' E 018°50'4 5.0
2014-Nov-19 05:30N 69°39' E 018°57'0 0.0
2014-Nov-19 04:33N 69°39' E 018°57'0 0.0
2014-Nov-19 03:33N 69°39' E 018°57'0 0.0
2014-Nov-19 02:27N 69°39' E 018°57'0 0.0
2014-Nov-19 01:32N 69°39' E 018°57'0 0.0
2014-Nov-19 00:32N 69°39' E 018°57'0 0.0
2014-Nov-18 23:32N 69°39' E 018°57'0 0.0
2014-Nov-18 22:32N 69°39' E 018°57'0 0.0
2014-Nov-18 21:32N 69°39' E 018°57'0 0.0
2014-Nov-18 20:32N 69°39' E 018°57'0 0.0
2014-Nov-18 19:32N 69°39' E 018°57'6 1.5
2014-Nov-18 15:15N 69°44' E 019°06'6 7.3
2014-Nov-18 14:23N 69°39' E 018°57'0 0.0
2014-Nov-18 13:32N 69°39' E 018°57'0 0.0
2014-Nov-18 12:17N 69°39' E 018°57'0 0.0
2014-Nov-18 11:32N 69°39' E 018°57'0 0.0
2014-Nov-18 10:28N 69°39' E 018°57'0 0.0
2014-Nov-18 09:31N 69°39' E 018°57'6 0.4
2014-Nov-17 18:33N 69°44' E 019°05'6 5.6
2014-Nov-17 17:33N 69°39' E 018°57'4 1.5
2014-Nov-17 15:09N 69°36' E 018°52'4 5.9
2014-Nov-17 14:33N 69°39' E 018°57'0 0.0
2014-Nov-17 13:30N 69°39' E 018°57'0 0.0
2014-Nov-17 12:33N 69°39' E 018°57'0 0.0
2014-Nov-17 11:33N 69°39' E 018°57'0 0.0
2014-Nov-17 10:33N 69°39' E 018°57'0 0.0
2014-Nov-17 09:33N 69°39' E 018°57'0 0.0
2014-Nov-17 08:27N 69°39' E 018°57'4 2.0
2014-Nov-17 06:19N 69°35' E 018°51'4 4.3
2014-Nov-17 05:22N 69°39' E 018°57'0 0.0
2014-Nov-17 04:31N 69°39' E 018°57'0 0.0
2014-Nov-17 03:28N 69°39' E 018°57'0 0.0
2014-Nov-17 02:31N 69°39' E 018°57'0 0.0
2014-Nov-17 01:31N 69°39' E 018°57'0 0.0
2014-Nov-17 00:28N 69°39' E 018°57'0 0.0
2014-Nov-16 23:31N 69°39' E 018°57'0 0.0
2014-Nov-16 22:31N 69°39' E 018°57'0 0.0
2014-Nov-16 21:34N 69°39' E 018°57'5 2.2
2014-Nov-16 19:30N 69°35' E 018°50'  
Track history (hours):
 
Tides and Currents Weather Stations Pressure Air Temp Water Temp Dewpoint Dewpoint Depression Visibility Wind Speed Wind Dir Waves Ship Positions

Fjordprinsessen

Last reported at 2014-Nov-26 18:31 UTC. Time now 2014-Nov-26 21:36 UTC.
Position N 69°42' E 019°03'.

Length 30 m; draft 2.9 m.

Type: High speed craft. MMSI: 259604000.

Date/timePositionNaut miles runAvg speedWind from/ knotsBaromVisibWave heightAir tempDewpointWater temp
2014-Nov-26 18:31N 69°42' E 019°03'4 3.9
2014-Nov-26 17:33N 69°39' E 018°57'2 0.9
2014-Nov-26 15:07N 69°37' E 018°54'2 3.8
2014-Nov-26 14:31N 69°39' E 018°57'0 0.0
2014-Nov-26 13:31N 69°39' E 018°57'0 0.0
2014-Nov-26 12:31N 69°39' E 018°57'0 0.0
2014-Nov-26 11:31N 69°39' E 018°57'0 0.0
2014-Nov-26 10:31N 69°39' E 018°57'0 0.0
2014-Nov-26 09:31N 69°39' E 018°57'0 0.0
2014-Nov-26 08:22N 69°39' E 018°57'7 3.4
2014-Nov-26 06:24N 69°34' E 018°46'7 7.6
2014-Nov-26 05:32N 69°39' E 018°57'0 0.0
2014-Nov-26 04:32N 69°39' E 018°57'0 0.0
2014-Nov-26 03:29N 69°39' E 018°57'0 0.0
2014-Nov-26 02:32N 69°39' E 018°57'0 0.0
2014-Nov-26 01:29N 69°39' E 018°57'0 0.0
2014-Nov-26 00:32N 69°39' E 018°57'0 0.0
2014-Nov-25 23:32N 69°39' E 018°57'0 0.0
2014-Nov-25 22:32N 69°39' E 018°57'0 0.0
2014-Nov-25 21:32N 69°39' E 018°57'0 0.0
2014-Nov-25 20:20N 69°39' E 018°57'0 0.0
2014-Nov-25 19:29N 69°39' E 018°57'6 1.5
2014-Nov-25 15:16N 69°44' E 019°06'6 7.6
2014-Nov-25 14:26N 69°39' E 018°57'0 0.0
2014-Nov-25 13:32N 69°39' E 018°57'0 0.0
2014-Nov-25 12:29N 69°39' E 018°57'0 0.0
2014-Nov-25 11:23N 69°39' E 018°57'0 0.0
2014-Nov-25 10:32N 69°39' E 018°57'0 0.0
2014-Nov-25 09:29N 69°39' E 018°57'5 0.3
2014-Nov-24 18:33N 69°43' E 019°04'5 4.5
2014-Nov-24 17:33N 69°39' E 018°57'5 2.2
2014-Nov-24 15:12N 69°34' E 018°50'5 7.1
2014-Nov-24 14:29N 69°39' E 018°57'0 0.0
2014-Nov-24 13:26N 69°39' E 018°57'0 0.0
2014-Nov-24 12:32N 69°39' E 018°57'0 0.0
2014-Nov-24 11:29N 69°39' E 018°57'0 0.0
2014-Nov-24 10:32N 69°39' E 018°57'0 0.0
2014-Nov-24 09:29N 69°39' E 018°57'0 0.0
2014-Nov-24 08:32N 69°39' E 018°57'7 3.2
2014-Nov-24 06:25N 69°34' E 018°45'7 7.8
2014-Nov-24 05:33N 69°39' E 018°57'0 0.0
2014-Nov-24 04:33N 69°39' E 018°57'0 0.0
2014-Nov-24 03:33N 69°39' E 018°57'0 0.0
2014-Nov-24 02:33N 69°39' E 018°57'0 0.0
2014-Nov-24 01:33N 69°39' E 018°57'0 0.0
2014-Nov-24 00:33N 69°39' E 018°57'0 0.0
2014-Nov-23 23:33N 69°39' E 018°57'0 0.0
2014-Nov-23 22:33N 69°39' E 018°57'0 0.0
2014-Nov-23 21:33N 69°39' E 018°57'5 2.3
2014-Nov-23 19:32N 69°35' E 018°50'5 0.8
2014-Nov-23 13:33N 69°39' E 018°57'0 0.0
2014-Nov-23 12:33N 69°39' E 018°57'0 0.0
2014-Nov-23 11:33N 69°39' E 018°57'0 0.0
2014-Nov-23 10:33N 69°39' E 018°57'0 0.0
2014-Nov-23 09:33N 69°39' E 018°57'0 0.0
2014-Nov-23 08:33N 69°39' E 018°57'0 0.0
2014-Nov-23 07:33N 69°39' E 018°57'0 0.0
2014-Nov-23 06:33N 69°39' E 018°57'0 0.0
2014-Nov-23 05:33N 69°39' E 018°57'0 0.0
2014-Nov-23 04:33N 69°39' E 018°57'0 0.0
2014-Nov-23 03:33N 69°39' E 018°57'0 0.0
2014-Nov-23 02:33N 69°39' E 018°57'0 0.0
2014-Nov-23 01:33N 69°39' E 018°57'0 0.0
2014-Nov-23 00:33N 69°39' E 018°57'0 0.0
2014-Nov-22 23:33N 69°39' E 018°57'0 0.0
2014-Nov-22 22:33N 69°39' E 018°57'0 0.0
2014-Nov-22 21:33N 69°39' E 018°57'0 0.0
2014-Nov-22 20:33N 69°39' E 018°57'0 0.0
2014-Nov-22 19:33N 69°39' E 018°57'0 0.0
2014-Nov-22 18:33N 69°39' E 018°57'0 0.0
2014-Nov-22 17:33N 69°39' E 018°57'0 0.0
2014-Nov-22 16:33N 69°39' E 018°57'0 0.0
2014-Nov-22 15:33N 69°39' E 018°57'0 0.0
2014-Nov-22 14:33N 69°39' E 018°57'0 0.0
2014-Nov-22 13:33N 69°39' E 018°57'0 0.0
2014-Nov-22 12:33N 69°39' E 018°57'0 0.0
2014-Nov-22 11:33N 69°39' E 018°57'0 0.0
2014-Nov-22 10:33N 69°39' E 018°57'0 0.0
2014-Nov-22 09:33N 69°39' E 018°57'0 0.0
2014-Nov-22 08:33N 69°39' E 018°57'0 0.0
2014-Nov-22 07:33N 69°39' E 018°57'0 0.0
2014-Nov-22 06:33N 69°39' E 018°57'0 0.0
2014-Nov-22 05:33N 69°39' E 018°57'0 0.0
2014-Nov-22 04:33N 69°39' E 018°57'0 0.0
2014-Nov-22 03:33N 69°39' E 018°57'0 0.0
2014-Nov-22 02:33N 69°39' E 018°57'0 0.0
2014-Nov-22 01:33N 69°39' E 018°57'0 0.0
2014-Nov-22 00:33N 69°39' E 018°57'0 0.0
2014-Nov-21 23:33N 69°39' E 018°57'0 0.0
2014-Nov-21 22:33N 69°39' E 018°57'6 1.3
2014-Nov-21 17:30N 69°44' E 019°06'10 4.5
2014-Nov-21 15:11N 69°35' E 018°51'4 6.5
2014-Nov-21 14:33N 69°39' E 018°57'0 0.0
2014-Nov-21 13:18N 69°39' E 018°57'0 0.0
2014-Nov-21 12:33N 69°39' E 018°57'0 0.0
2014-Nov-21 11:33N 69°39' E 018°57'0 0.0
2014-Nov-21 10:30N 69°39' E 018°57'0 0.0
2014-Nov-21 09:27N 69°39' E 018°57'0 0.0
2014-Nov-21 08:24N 69°39' E 018°57'6 2.9
2014-Nov-21 06:24N 69°34' E 018°47'6 7.1
2014-Nov-21 05:33N 69°39' E 018°57'0 0.0
2014-Nov-21 04:33N 69°39' E 018°57'0 0.0
2014-Nov-21 03:33N 69°39' E 018°57'0 0.0
2014-Nov-21 02:33N 69°39' E 018°57'0 0.0
2014-Nov-21 01:33N 69°39' E 018°57'0 0.0
2014-Nov-21 00:33N 69°39' E 018°57'0 0.0
2014-Nov-20 23:33N 69°39' E 018°57'0 0.0
2014-Nov-20 22:33N 69°39' E 018°57'0 0.0
2014-Nov-20 21:33N 69°39' E 018°57'0 0.0
2014-Nov-20 20:33N 69°39' E 018°57'0 0.0
2014-Nov-20 19:33N 69°39' E 018°57'6 1.3
2014-Nov-20 15:14N 69°44' E 019°05'6 6.2
2014-Nov-20 14:19N 69°39' E 018°57'0 0.0
2014-Nov-20 13:31N 69°39' E 018°57'0 0.0
2014-Nov-20 12:31N 69°39' E 018°57'0 0.0
2014-Nov-20 11:25N 69°39' E 018°57'0 0.0
2014-Nov-20 10:33N 69°39' E 018°57'0 0.0
2014-Nov-20 09:33N 69°39' E 018°57'0 0.0
2014-Nov-19 18:34N 69°39' E 018°59'0 0.4
2014-Nov-19 17:33N 69°39' E 018°57'5 2.2
2014-Nov-19 15:14N 69°35' E 018°50'5 7.5
2014-Nov-19 14:33N 69°39' E 018°57'0 0.0
2014-Nov-19 13:33N 69°39' E 018°57'0 0.0
2014-Nov-19 12:33N 69°39' E 018°57'0 0.0
2014-Nov-19 11:33N 69°39' E 018°57'2 2.2
2014-Nov-19 10:33N 69°41' E 018°60'0 0.0
2014-Nov-19 09:33N 69°41' E 018°60'0 0.0
2014-Nov-19 08:33N 69°41' E 018°60'7 3.0
2014-Nov-19 06:21N 69°35' E 018°50'4 5.0
2014-Nov-19 05:30N 69°39' E 018°57'0 0.0
2014-Nov-19 04:33N 69°39' E 018°57'0 0.0
2014-Nov-19 03:33N 69°39' E 018°57'0 0.0
2014-Nov-19 02:27N 69°39' E 018°57'0 0.0
2014-Nov-19 01:32N 69°39' E 018°57'0 0.0
2014-Nov-19 00:32N 69°39' E 018°57'0 0.0
2014-Nov-18 23:32N 69°39' E 018°57'0 0.0
2014-Nov-18 22:32N 69°39' E 018°57'0 0.0
2014-Nov-18 21:32N 69°39' E 018°57'0 0.0
2014-Nov-18 20:32N 69°39' E 018°57'0 0.0
2014-Nov-18 19:32N 69°39' E 018°57'6 1.5
2014-Nov-18 15:15N 69°44' E 019°06'6 7.3
2014-Nov-18 14:23N 69°39' E 018°57'0 0.0
2014-Nov-18 13:32N 69°39' E 018°57'0 0.0
2014-Nov-18 12:17N 69°39' E 018°57'0 0.0
2014-Nov-18 11:32N 69°39' E 018°57'0 0.0
2014-Nov-18 10:28N 69°39' E 018°57'0 0.0
2014-Nov-18 09:31N 69°39' E 018°57'6 0.4
2014-Nov-17 18:33N 69°44' E 019°05'6 5.6
2014-Nov-17 17:33N 69°39' E 018°57'4 1.5
2014-Nov-17 15:09N 69°36' E 018°52'4 5.9
2014-Nov-17 14:33N 69°39' E 018°57'0 0.0
2014-Nov-17 13:30N 69°39' E 018°57'0 0.0
2014-Nov-17 12:33N 69°39' E 018°57'0 0.0
2014-Nov-17 11:33N 69°39' E 018°57'0 0.0
2014-Nov-17 10:33N 69°39' E 018°57'0 0.0
2014-Nov-17 09:33N 69°39' E 018°57'0 0.0
2014-Nov-17 08:27N 69°39' E 018°57'4 2.0
2014-Nov-17 06:19N 69°35' E 018°51'4 4.3
2014-Nov-17 05:22N 69°39' E 018°57'0 0.0
2014-Nov-17 04:31N 69°39' E 018°57'0 0.0
2014-Nov-17 03:28N 69°39' E 018°57'0 0.0
2014-Nov-17 02:31N 69°39' E 018°57'0 0.0
2014-Nov-17 01:31N 69°39' E 018°57'0 0.0
2014-Nov-17 00:28N 69°39' E 018°57'0 0.0
2014-Nov-16 23:31N 69°39' E 018°57'0 0.0
2014-Nov-16 22:31N 69°39' E 018°57'0 0.0
2014-Nov-16 21:34N 69°39' E 018°57'5 2.2
2014-Nov-16 19:30N 69°35' E 018°50'  

Dump ship's entire track history